OE4EWA-13 Weather Reports


time (UTC)temp
C
wind
direction
speed
KPH
gust
KPH
rain 1hr
cm
rain 24hr
cm
rain mn
cm
humidity
%
barometer
mb
20260905234501 18 307 14.5 0.0 0.00 0.00 0.00 58 1000.0
20260905233000 18 277 14.5 0.0 0.00 0.00 0.00 58 1000.0
20260905231500 18 277 14.5 0.0 0.00 0.00 0.00 58 1000.0
20260905230000 18 277 14.5 0.0 0.00 0.00 0.00 56 1000.0
20260905224501 18 277 14.5 0.0 0.00 0.00 0.00 56 1000.0
20260905223001 19 263 11.3 0.0 0.00 0.00 0.00 56 1000.0
20260905221500 19 263 11.3 0.0 0.00 0.00 0.00 54 1000.0
20260905220001 19 263 11.3 0.0 0.00 0.00 0.00 54 1000.0
20260905214500 20 263 11.3 0.0 0.00 0.00 0.00 54 1000.0
20260905213000 20 262 9.7 0.0 0.00 0.00 0.00 54 1000.0
20260905211500 19 262 9.7 0.0 0.00 0.00 0.00 55 1000.0
20260905210001 19 262 9.7 0.0 0.00 0.00 0.00 55 1000.0
20260905204500 19 262 9.7 0.0 0.00 0.00 0.00 55 1000.0
20260905203000 20 307 11.3 0.0 0.00 0.00 0.00 55 1000.0
20260905201500 20 307 11.3 0.0 0.00 0.00 0.00 55 1000.0
20260905200001 20 307 11.3 0.0 0.00 0.00 0.00 53 999.0
20260905194501 21 307 11.3 0.0 0.00 0.00 0.00 53 999.0
20260905193000 21 321 11.3 0.0 0.00 0.00 0.00 52 999.0
20260905191500 21 321 11.3 0.0 0.00 0.00 0.00 49 999.0
20260905190001 21 321 11.3 0.0 0.00 0.00 0.00 51 999.0
20260905184500 22 321 11.3 0.0 0.00 0.00 0.00 51 998.0
20260905183000 22 328 16.1 0.0 0.00 0.00 0.00 48 998.0
20260905181500 22 328 16.1 0.0 0.00 0.00 0.00 50 998.0
20260905180000 23 328 16.1 0.0 0.00 0.00 0.00 48 998.0
20260905174500 23 328 16.1 0.0 0.00 0.00 0.00 45 997.0
20260905173000 25 313 17.7 0.0 0.00 0.00 0.00 43 997.0
20260905171500 25 313 17.7 0.0 0.00 0.00 0.00 41 997.0
20260905170000 26 313 17.7 0.0 0.00 0.00 0.00 43 997.0
20260905164501 27 313 17.7 0.0 0.00 0.00 0.00 41 996.0
20260905163000 27 309 20.9 0.0 0.00 0.00 0.00 35 996.0
20260905161500 27 309 20.9 0.0 0.00 0.00 0.00 35 996.0
20260905160000 28 309 20.9 0.0 0.00 0.00 0.00 35 996.0
20260905154500 28 309 20.9 0.0 0.00 0.00 0.00 36 996.0
20260905153000 28 315 19.3 0.0 0.00 0.00 0.00 36 996.0
20260905151500 28 315 19.3 0.0 0.00 0.00 0.00 36 996.0
20260905150000 29 315 19.3 0.0 0.00 0.00 0.00 37 996.0
20260905144500 29 315 19.3 0.0 0.00 0.00 0.00 37 996.0
20260905143000 29 337 16.1 0.0 0.00 0.00 0.00 37 996.0
20260905141500 29 337 16.1 0.0 0.00 0.00 0.00 36 996.0
20260905140000 29 337 16.1 0.0 0.00 0.00 0.00 41 996.0
20260905134500 28 337 16.1 0.0 0.00 0.00 0.00 41 996.0
20260905133000 28 337 16.1 0.0 0.00 0.00 0.00 43 996.0
20260905131500 27 333 17.7 0.0 0.00 0.00 0.00 46 996.0
20260905130000 27 333 17.7 0.0 0.00 0.00 0.00 47 996.0
20260905124500 27 333 17.7 0.0 0.00 0.00 0.00 46 996.0
20260905123000 26 333 17.7 0.0 0.00 0.00 0.00 48 997.0
20260905121500 25 329 16.1 0.0 0.00 0.00 0.00 49 996.0
20260905120000 25 329 16.1 0.0 0.00 0.00 0.00 47 997.0
20260905114500 25 329 16.1 0.0 0.00 0.00 0.00 49 997.0
20260905113000 25 329 16.1 0.0 0.00 0.00 0.00 49 997.0
20260905111500 25 329 9.7 0.0 0.00 0.00 0.00 48 997.0
20260905110000 25 329 9.7 0.0 0.00 0.00 0.00 48 996.0
20260905104500 25 329 9.7 0.0 0.00 0.00 0.00 46 997.0
20260905103000 26 329 9.7 0.0 0.00 0.00 0.00 44 997.0
20260905101500 27 340 11.3 0.0 0.00 0.00 0.00 43 996.0
20260905100000 27 340 11.3 0.0 0.00 0.00 0.00 43 997.0
20260905094500 26 340 11.3 0.0 0.00 0.00 0.00 45 997.0
20260905093000 24 340 11.3 0.0 0.00 0.00 0.00 49 997.0
20260905091500 23 337 17.7 0.0 0.00 0.00 0.00 51 997.0
20260905090001 23 337 17.7 0.0 0.00 0.00 0.00 49 997.0
20260905084500 23 337 17.7 0.0 0.00 0.00 0.00 49 998.0
20260905083000 22 337 17.7 0.0 0.00 0.00 0.00 48 998.0
20260905081500 21 346 24.1 0.0 0.00 0.00 0.00 52 998.0
20260905080000 21 346 24.1 0.0 0.00 0.00 0.00 52 998.0
20260905074500 21 346 24.1 0.0 0.00 0.00 0.00 52 998.0
20260905073000 21 346 24.1 0.0 0.00 0.00 0.00 51 997.0
20260905071500 21 335 19.3 0.0 0.00 0.00 0.00 51 997.0
20260905070000 21 335 19.3 0.0 0.00 0.00 0.00 52 997.0
20260905064500 21 335 19.3 0.0 0.00 0.00 0.00 52 997.0
20260905063000 21 335 19.3 0.0 0.00 0.00 0.00 53 997.0
20260905061500 21 326 24.1 0.0 0.00 0.00 0.00 52 996.0
20260905060000 21 326 24.1 0.0 0.00 0.00 0.00 49 996.0
20260905054500 22 326 24.1 0.0 0.00 0.00 0.00 46 995.0
20260905053000 22 326 24.1 0.0 0.00 0.00 0.00 49 995.0
20260905051500 22 331 22.5 0.0 0.00 0.00 0.00 51 994.0
20260905050001 22 331 22.5 0.0 0.00 0.00 0.00 49 994.0
20260905044502 22 331 22.5 0.0 0.00 0.00 0.00 56 994.0
20260905043000 21 331 22.5 0.0 0.00 0.00 0.00 62 993.0
20260905041501 21 304 11.3 0.0 0.00 0.00 0.00 64 992.0
20260905040000 20 304 11.3 0.0 0.00 0.00 0.00 64 991.0
20260905034501 20 304 11.3 0.0 0.00 0.00 0.00 65 991.0
20260905033000 21 304 11.3 0.0 0.00 0.00 0.00 65 991.0
20260905031500 20 284 9.7 0.0 0.00 0.00 0.00 64 991.0
20260905030005 21 284 9.7 0.0 0.00 0.00 0.00 64 991.0
20260905024500 21 284 9.7 0.0 0.00 0.00 0.00 64 991.0
20260905023000 20 284 9.7 0.0 0.00 0.00 0.00 62 991.0
20260905021500 20 271 8.0 0.0 0.00 0.00 0.00 65 991.0
20260905020000 20 271 8.0 0.0 0.00 0.00 0.00 67 991.0
20260905014500 20 271 8.0 0.0 0.00 0.00 0.00 67 991.0
20260905013000 20 271 8.0 0.0 0.00 0.00 0.00 67 991.0
20260905011500 20 271 8.0 0.0 0.00 0.00 0.00 67 991.0
20260905010000 20 268 8.0 0.0 0.00 0.00 0.00 65 991.0
20260905004500 20 268 8.0 0.0 0.00 0.00 0.00 65 991.0
20260905003000 21 268 8.0 0.0 0.00 0.00 0.00 65 991.0
20260905001500 21 268 8.0 0.0 0.00 0.00 0.00 66 991.0
20260905000000 21 267 8.0 0.0 0.00 0.00 0.00 66 991.0